Showing default

ASTROCAST-0404, 55112

Orbit data source: Space-Track

ASTROCAST-0404, 55112 is a payload satellite owned by Astrocast (CH) in SSO that was launched on Tue, 03 Jan 2023 UTC via an FALCON 9 launch vehicle from the Air Force Eastern Test Range (AFETR). Payload-class satellites include a variety of spacecraft equipped with specific instruments for various scientific and technological missions. These include communications satellites like Starlink; space stations such as the ISS; scientific satellites like the Hubble; Earth observation satellites from companies like Planet Labs, Umbra, and HawkEye 360; GPS; miniature CubeSats for education and research; and military/defense satellites.

Loading next visibility...
Identifier
55112, 2023-001DH
Orbit
SSO
Country
Flag of CHCH / SWTZ
Related business
Manufacturer
Astrocast
Mission
Operational Commercial Communications
Bus & Motor
CUBESAT 3U, Unknown motor
Mass
4.5 kg wet, 4.5 kg dry
Launch date (UTC)
2023-01-03 (3 years ago)
Launch vehicle
FALCON 9
Launch site
Air Force Eastern Test Range (AFETR)
Object type
Payload
Rocket body
Debris
Shape & HBR
Box, 0.1 m
Radar Cross Section
0.035 m², Medium (>0.1 m² and < 1m²)

Expand to show TLE details & history
Last TLE update: 9 hours ago

TLE from 9 hours ago
0 ASTROCAST-0404
1 55112U 23001DH  26133.49426160  .00006187  00000-0  23379-3 0  9996
2 55112  97.5650 227.0801 0008282 119.0772 241.1297 15.27334080139232
Epoch: 2026-05-13T11:51Z
TLE epoch observation values (Epoch: 2026-05-13T11:51:44.202Z)
Latitude
-0.00001°
Longitude
177.89245°
Altitude
489.629 km
Speed
7.619 km/s
True Right ascension
15h 08m 19s
True Declination
0° 00' 00"
Sunlit
Object was in full shadow at epoch
Visualization orbit readout
Latitude
Unknown
Longitude
Unknown
Altitude
Unknown
Speed
Unknown
Apparent Right ascension
Unknown
Apparent Declination
Unknown
Sunlit
N/A
Visualization observer readout
Local Sidereal Time
05:35:58
Azimuth
Unknown
Elevation
Unknown
Doppler factor
Unknown
Orbital elements
Apogee altitude
486.429 km
Perigee altitude
475.068 km
Semi-major axis
6,858.886 km
Eccentricity
0.00083
Inclination
97.565°
RAAN
227.0801°
Arg. of periapsis
119.0772°
True anomaly
241.04663°
Mean anomaly
241.1297°
Eccentric anomaly
241.08816°
Mean motion
3.82088 °/min
Orbital period
94.22 mins
BSTAR
0.00023379
Loading maneuver chart data...
Computing Atmospheric mass density...

Documentation

Showing up to 5 results
|